Change the Weather History Date:

Sunday, March 24, 2013

  Actual Average Record
Temperature  
Mean Temperature 49 °F 59 °F  
Max Temperature 58 °F 71 °F 95 °F (1929)
Min Temperature 39 °F 47 °F 22 °F (1968)
Degree Days  
Heating Degree Days 16 7  
Month to date heating degree days 300 232  
Since 1 July heating degree days 2051 2224  
Cooling Degree Days 0 1  
Month to date cooling degree days 3 21  
Year to date cooling degree days 17 31  
Moisture  
Dew Point 48 °F    
Average Humidity 75    
Maximum Humidity 100    
Minimum Humidity 49    
Precipitation  
Precipitation 0.06 in 0.17 in 2.70 in (1973)
Month to date precipitation 5.23 3.84  
Year to date precipitation 22.67 13.57  
Sea Level Pressure  
Sea Level Pressure 29.74 in    
Wind  
Wind Speed 12 mph (WNW)    
Max Wind Speed 22 mph    
Max Gust Speed 43 mph    
Visibility 6 miles    
Events Fog , Rain , Thunderstorm    
T = Trace of Precipitation, MM = Missing Value Source: NWS Daily Summary

Daily Weather History Graph

Daily Weather History Graph

Search for Another Location

Airport or City:

Trip Planner

Search our weather history database for the weather conditions in past years. The results will help you decide how hot, cold, wet, or windy it might be!

Date:

Astronomy

Mar. 24, 2013 Rise Set
Actual Time 6:58 AM CDT 7:14 PM CDT
Civil Twilight 6:34 AM CDT 7:39 PM CDT
Nautical Twilight 6:05 AM CDT 8:08 PM CDT
Astronomical Twilight 5:36 AM CDT 8:37 PM CDT
Moon 4:50 PM CDT (3/24) 5:00 AM CDT (3/24)
Length of Visible Light 13h 05m
Length of Day
12h 16m
Waxing Gibbous, 92% of the Moon is Illuminated
Mar 24
Waxing Gibbous
Mar 27
Full
Apr 2
Last Quarter
Apr 10
New
Apr 18
First Quarter

Hourly Weather History & Observations

Time (CDT) Temp. Windchill Dew Point Humidity Pressure Visibility Wind Dir Wind Speed Gust Speed Precip Events Conditions
12:05 AM 60.8 °F - 57.2 °F 88% 29.65 in 7.0 mi North 8.1 mph - 0.00 in Rain , Thunderstorm Light Rain
12:12 AM 60.8 °F - 57.2 °F 88% 29.67 in 5.0 mi NNW 19.6 mph 23.0 mph 0.00 in Rain Light Rain
12:30 AM 57.2 °F - 55.4 °F 94% 29.73 in 2.5 mi WNW 18.4 mph 26.5 mph 0.03 in Rain Light Rain
12:45 AM 57.2 °F - 55.4 °F 94% 29.66 in 3.0 mi NE 13.8 mph - 0.11 in Rain Light Rain
12:54 AM 57.0 °F - 55.0 °F 93% 29.65 in 7.0 mi NE 11.5 mph - 0.11 in Rain Light Rain
1:54 AM 57.0 °F - 55.0 °F 93% 29.61 in 10.0 mi East 5.8 mph - 0.09 in   Mostly Cloudy
2:54 AM 55.0 °F - 54.0 °F 96% 29.61 in 10.0 mi Calm Calm - N/A   Mostly Cloudy
3:31 AM 53.6 °F - 53.6 °F 100% 29.62 in 1.5 mi West 3.5 mph - N/A   Partly Cloudy
3:40 AM 53.6 °F - 51.8 °F 94% 29.62 in 0.8 mi Calm Calm - N/A   Mist
3:54 AM 53.1 °F - 52.0 °F 96% 29.61 in 0.8 mi Calm Calm - N/A   Mist
4:07 AM 51.8 °F - 51.8 °F 100% 29.63 in 0.2 mi West 3.5 mph - N/A Fog Fog
4:14 AM 51.8 °F - 51.8 °F 100% 29.63 in 1.0 mi Calm Calm - N/A   Mist
4:17 AM 53.6 °F - 51.8 °F 94% 29.63 in 2.5 mi Calm Calm - N/A   Scattered Clouds
4:24 AM 53.6 °F - 53.6 °F 100% 29.63 in 6.0 mi Calm Calm - N/A   Partly Cloudy
4:34 AM 53.6 °F - 51.8 °F 94% 29.62 in 1.8 mi Calm Calm - N/A   Clear
4:54 AM 52.0 °F - 52.0 °F 100% 29.60 in 0.8 mi Calm Calm - N/A   Clear
5:12 AM 51.8 °F - 50.0 °F 94% 29.64 in 0.5 mi NW 3.5 mph - N/A Fog Fog
5:18 AM 53.6 °F - 51.8 °F 94% 29.66 in 1.2 mi NW 4.6 mph - N/A   Scattered Clouds
5:22 AM 53.6 °F - 51.8 °F 94% 29.66 in 4.0 mi WNW 3.5 mph - N/A   Scattered Clouds
6:12 AM 53.6 °F - 53.6 °F 100% 29.64 in 1.0 mi West 4.6 mph - N/A   Overcast
6:21 AM 53.6 °F - 53.6 °F 100% 29.64 in 0.1 mi West 5.8 mph - N/A Fog Fog
6:54 AM 54.0 °F - 54.0 °F 100% 29.66 in 0.1 mi West 8.1 mph - N/A Fog Fog
7:34 AM 55.4 °F - 55.4 °F 100% 29.70 in 0.8 mi West 8.1 mph - N/A   Overcast
7:45 AM 55.4 °F - 55.4 °F 100% 29.70 in 2.5 mi West 10.4 mph - N/A   Overcast
7:52 AM 55.4 °F - 55.4 °F 100% 29.71 in 3.0 mi WNW 10.4 mph - N/A   Overcast
7:54 AM 55.9 °F - 55.0 °F 97% 29.70 in 3.0 mi West 10.4 mph - N/A   Overcast
8:03 AM 55.4 °F - 55.4 °F 100% 29.71 in 2.5 mi WNW 10.4 mph - N/A   Overcast
8:11 AM 55.4 °F - 55.4 °F 100% 29.71 in 4.0 mi West 10.4 mph 19.6 mph N/A   Overcast
8:31 AM 55.4 °F - 53.6 °F 94% 29.72 in 2.0 mi West 9.2 mph - 0.00 in Rain Light Rain
8:42 AM 53.6 °F - 53.6 °F 100% 29.73 in 6.0 mi West 15.0 mph 19.6 mph 0.00 in   Overcast
8:54 AM 54.0 °F - 53.1 °F 97% 29.73 in 8.0 mi WNW 12.7 mph 18.4 mph 0.00 in   Overcast
9:54 AM 53.1 °F - 52.0 °F 96% 29.73 in 10.0 mi West 8.1 mph - N/A   Overcast
10:44 AM 53.6 °F - 51.8 °F 94% 29.75 in 10.0 mi West 10.4 mph 17.3 mph N/A   Overcast
10:54 AM 54.0 °F - 51.1 °F 90% 29.75 in 10.0 mi West 16.1 mph 24.2 mph N/A   Overcast
11:06 AM 53.6 °F - 50.0 °F 88% 29.75 in 10.0 mi West 11.5 mph 23.0 mph N/A   Overcast
11:18 AM 53.6 °F - 50.0 °F 88% 29.76 in 10.0 mi West 16.1 mph 24.2 mph N/A   Overcast
11:54 AM 52.0 °F - 48.0 °F 86% 29.78 in 10.0 mi West 16.1 mph 29.9 mph N/A   Overcast
12:26 PM 55.4 °F - 46.4 °F 72% 29.78 in 10.0 mi West 11.5 mph 25.3 mph N/A   Mostly Cloudy
12:45 PM 55.4 °F - 46.4 °F 72% 29.79 in 10.0 mi WNW 10.4 mph 20.7 mph N/A   Overcast
12:54 PM 55.0 °F - 44.1 °F 67% 29.78 in 10.0 mi West 16.1 mph 26.5 mph N/A   Overcast
1:54 PM 57.0 °F - 39.9 °F 53% 29.78 in 10.0 mi West 20.7 mph 31.1 mph N/A   Scattered Clouds
2:54 PM 55.9 °F - 37.9 °F 51% 29.80 in 10.0 mi West 20.7 mph 33.4 mph N/A   Scattered Clouds
3:54 PM 54.0 °F - 35.1 °F 49% 29.82 in 10.0 mi West 21.9 mph 28.8 mph N/A   Partly Cloudy
4:54 PM 52.0 °F - 34.0 °F 50% 29.84 in 10.0 mi NW 16.1 mph 25.3 mph N/A   Scattered Clouds
5:54 PM 50.0 °F - 32.0 °F 50% 29.88 in 10.0 mi WNW 13.8 mph 26.5 mph N/A   Scattered Clouds
6:54 PM 48.9 °F - 30.0 °F 48% 29.90 in 10.0 mi WNW 18.4 mph 27.6 mph N/A   Scattered Clouds
7:54 PM 48.2 °F - 30.2 °F 50% 29.93 in 10.0 mi NW 12.7 mph 23.0 mph N/A   Mostly Cloudy
8:54 PM 46.9 °F - 28.9 °F 50% 29.95 in 10.0 mi West 11.5 mph 42.6 mph N/A   Overcast
9:54 PM 44.1 °F 36.5 °F 28.0 °F 53% 29.99 in 10.0 mi NNW 17.3 mph 32.2 mph N/A   Mostly Cloudy
10:54 PM 42.1 °F 33.9 °F 27.0 °F 55% 30.01 in 10.0 mi NNW 17.3 mph - N/A   Mostly Cloudy
11:54 PM 41.0 °F 33.1 °F 27.0 °F 57% 30.02 in 10.0 mi NW 15.0 mph 26.5 mph N/A   Scattered Clouds